Find Starlink 11312

NORAD ID: 61689 Int'l Des: 2024-195 Owner: SPXS Country: US Constellation: starlink operational
LEOCIRCULAR

实时位置

正在加载3D地球...

关于 Starlink 11312

正在加载描述...

即将过境

Passes for default location (London). Set your location on the main map for personalized predictions.

高度历史

Loading altitude history...

两行轨道根数

1 61689U 24195C 26122.19273148 -.00001961 00000-0 -11335-4 0 9995
2 61689 53.1583 122.7515 0001067 66.8189 293.2941 15.69699004 87433
Epoch: May 2, 2026 • Age: 11 hours

当前状态

高度 367.5 km
速度 7.69 km/s
星下点 -25.91°S, 11.08°E
发射日期 Oct 30, 2024
运行时间 1.5 years
类型 internet

技术详情

分类 Payload
质量 960.00 kg
干质量 910.00 kg
总质量 960.00 kg
长度 0.30 m
直径 4.10 m
跨度 29.00 m
形状 Box + pan
制造商 SPXS
平台类型 Starlink V2MD
阶段状态 In Orbit
所有者/国家 SPXS/US

Most Searched